Time,TemperatureF,DewpointF,PressureIn,WindDirection,WindDirectionDegrees,WindSpeedMPH,WindSpeedGustMPH,Humidity,HourlyPrecipIn,Conditions,Clouds,dailyrainin,SolarRadiationWatts/m^2,SoftwareType,DateUTC
2013-01-03 00:00:00,10.0,-7.5,30.06,NW,322,19.0,29.0,44,0.00,,,0.00,0,WeatherHawk,2013-01-03 05:00:00,
2013-01-03 00:01:00,10.0,-7.5,30.06,NW,316,18.0,29.0,44,0.00,,,0.00,0,WeatherHawk,2013-01-03 05:01:00,
2013-01-03 00:04:00,9.9,-7.6,30.07,NNW,346,13.0,27.0,44,0.00,,,0.00,0,WeatherHawk,2013-01-03 05:04:00,
2013-01-03 00:09:00,9.9,-7.2,30.07,NW,318,19.0,27.0,45,0.00,,,0.00,0,WeatherHawk,2013-01-03 05:09:00,
2013-01-03 00:10:00,9.7,-7.3,30.07,NW,315,14.0,27.0,45,0.00,,,0.00,0,WeatherHawk,2013-01-03 05:10:00,
2013-01-03 00:16:00,9.7,-7.3,30.07,NW,316,14.0,25.0,45,0.00,,,0.00,0,WeatherHawk,2013-01-03 05:16:00,
2013-01-03 00:21:00,9.5,-7.5,30.07,NW,316,16.0,25.0,45,0.00,,,0.00,0,WeatherHawk,2013-01-03 05:21:00,
2013-01-03 00:26:00,9.3,-7.7,30.07,NW,324,15.0,30.0,45,0.00,,,0.00,0,WeatherHawk,2013-01-03 05:26:00,
2013-01-03 00:31:00,9.3,-7.7,30.07,NW,322,15.0,30.0,45,0.00,,,0.00,0,WeatherHawk,2013-01-03 05:31:00,
2013-01-03 00:36:00,9.1,-7.8,30.07,NNW,338,16.0,25.0,45,0.00,,,0.00,0,WeatherHawk,2013-01-03 05:36:00,
2013-01-03 00:41:00,9.1,-7.4,30.08,NW,304,15.0,21.0,46,0.00,,,0.00,0,WeatherHawk,2013-01-03 05:41:00,
2013-01-03 00:46:00,9.0,-7.6,30.08,NW,316,26.0,26.0,46,0.00,,,0.00,0,WeatherHawk,2013-01-03 05:46:00,
2013-01-03 00:51:00,9.0,-8.0,30.07,WNW,299,21.0,26.0,45,0.00,,,0.00,0,WeatherHawk,2013-01-03 05:51:00,
2013-01-03 00:56:00,8.8,-7.7,30.07,WNW,301,16.0,26.0,46,0.00,,,0.00,0,WeatherHawk,2013-01-03 05:56:00,
2013-01-03 01:01:00,8.8,-7.7,30.07,WNW,295,20.0,25.0,46,0.00,,,0.00,0,WeatherHawk,2013-01-03 06:01:00,
2013-01-03 01:06:00,8.6,-7.9,30.07,NNW,327,13.0,23.0,46,0.00,,,0.00,0,WeatherHawk,2013-01-03 06:06:00,
2013-01-03 01:12:00,8.6,-7.9,30.08,NW,316,18.0,23.0,46,0.00,,,0.00,0,WeatherHawk,2013-01-03 06:12:00,
2013-01-03 01:17:00,8.6,-8.3,30.09,NW,307,11.0,21.0,45,0.00,,,0.00,0,WeatherHawk,2013-01-03 06:17:00,
2013-01-03 01:22:00,8.4,-8.1,30.09,WNW,296,12.0,22.0,46,0.00,,,0.00,0,WeatherHawk,2013-01-03 06:22:00,
2013-01-03 01:27:00,8.4,-8.1,30.09,WNW,303,17.0,23.0,46,0.00,,,0.00,0,WeatherHawk,2013-01-03 06:27:00,
2013-01-03 01:32:00,8.4,-8.1,30.09,NNW,333,11.0,23.0,46,0.00,,,0.00,0,WeatherHawk,2013-01-03 06:32:00,
2013-01-03 01:37:00,8.4,-7.6,30.09,NW,308,17.0,22.0,47,0.00,,,0.00,0,WeatherHawk,2013-01-03 06:37:00,
2013-01-03 01:42:00,8.2,-7.8,30.09,NW,311,21.0,23.0,47,0.00,,,0.00,0,WeatherHawk,2013-01-03 06:42:00,
2013-01-03 01:47:00,8.2,-8.2,30.09,NNW,336,12.0,24.0,46,0.00,,,0.00,0,WeatherHawk,2013-01-03 06:47:00,
2013-01-03 01:52:00,8.1,-8.0,30.09,WNW,296,16.0,24.0,47,0.00,,,0.00,0,WeatherHawk,2013-01-03 06:52:00,
2013-01-03 01:57:00,8.1,-8.4,30.09,NW,317,16.0,25.0,46,0.00,,,0.00,0,WeatherHawk,2013-01-03 06:57:00,
2013-01-03 02:02:00,7.9,-8.6,30.09,WNW,296,16.0,27.0,46,0.00,,,0.00,0,WeatherHawk,2013-01-03 07:02:00,
2013-01-03 02:07:00,7.9,-8.1,30.10,NNW,336,12.0,27.0,47,0.00,,,0.00,0,WeatherHawk,2013-01-03 07:07:00,
2013-01-03 02:12:00,7.9,-8.1,30.09,NW,311,17.0,26.0,47,0.00,,,0.00,0,WeatherHawk,2013-01-03 07:12:00,
2013-01-03 02:17:00,7.7,-8.3,30.09,NNW,341,12.0,21.0,47,0.00,,,0.00,0,WeatherHawk,2013-01-03 07:17:00,
2013-01-03 02:22:00,7.7,-8.3,30.09,NW,305,19.0,21.0,47,0.00,,,0.00,0,WeatherHawk,2013-01-03 07:22:00,
2013-01-03 02:27:00,7.5,-8.4,30.09,NW,305,16.0,24.0,47,0.00,,,0.00,0,WeatherHawk,2013-01-03 07:27:00,
2013-01-03 02:32:00,7.5,-8.4,30.09,NW,310,16.0,24.0,47,0.00,,,0.00,0,WeatherHawk,2013-01-03 07:32:00,
2013-01-03 02:37:00,7.5,-8.4,30.10,NW,318,16.0,21.0,47,0.00,,,0.00,0,WeatherHawk,2013-01-03 07:37:00,
2013-01-03 02:42:00,7.3,-8.6,30.10,NW,309,13.0,21.0,47,0.00,,,0.00,0,WeatherHawk,2013-01-03 07:42:00,
2013-01-03 02:47:00,7.3,-8.6,30.09,NNW,331,15.0,22.0,47,0.00,,,0.00,0,WeatherHawk,2013-01-03 07:47:00,
2013-01-03 02:52:00,7.3,-8.6,30.09,NW,314,13.0,24.0,47,0.00,,,0.00,0,WeatherHawk,2013-01-03 07:52:00,
2013-01-03 02:57:00,7.3,-8.6,30.09,NW,318,15.0,24.0,47,0.00,,,0.00,0,WeatherHawk,2013-01-03 07:57:00,
2013-01-03 03:02:00,7.3,-8.6,30.09,NW,319,9.0,24.0,47,0.00,,,0.00,0,WeatherHawk,2013-01-03 08:02:00,
2013-01-03 03:07:00,7.3,-8.6,30.09,WNW,302,13.0,23.0,47,0.00,,,0.00,0,WeatherHawk,2013-01-03 08:07:00,
2013-01-03 03:12:00,7.3,-8.6,30.09,WNW,303,11.0,23.0,47,0.00,,,0.00,0,WeatherHawk,2013-01-03 08:12:00,
2013-01-03 03:17:00,7.3,-8.6,30.09,NW,309,23.0,23.0,47,0.00,,,0.00,0,WeatherHawk,2013-01-03 08:17:00,
2013-01-03 03:22:00,7.3,-8.6,30.09,NW,304,13.0,23.0,47,0.00,,,0.00,0,WeatherHawk,2013-01-03 08:22:00,
2013-01-03 03:27:00,7.3,-8.6,30.09,NW,308,15.0,21.0,47,0.00,,,0.00,0,WeatherHawk,2013-01-03 08:27:00,
2013-01-03 03:32:00,7.2,-8.8,30.09,NW,315,19.0,23.0,47,0.00,,,0.00,0,WeatherHawk,2013-01-03 08:32:00,
2013-01-03 03:37:00,7.2,-8.8,30.09,NW,323,12.0,23.0,47,0.00,,,0.00,0,WeatherHawk,2013-01-03 08:37:00,
2013-01-03 03:42:00,7.2,-8.8,30.09,WNW,295,13.0,21.0,47,0.00,,,0.00,0,WeatherHawk,2013-01-03 08:42:00,
2013-01-03 03:47:00,7.0,-8.9,30.09,NW,319,12.0,19.0,47,0.00,,,0.00,0,WeatherHawk,2013-01-03 08:47:00,
2013-01-03 03:52:00,7.0,-8.9,30.09,WNW,295,12.0,19.0,47,0.00,,,0.00,0,WeatherHawk,2013-01-03 08:52:00,
2013-01-03 03:57:00,7.0,-8.9,30.09,NW,315,13.0,18.0,47,0.00,,,0.00,0,WeatherHawk,2013-01-03 08:57:00,
2013-01-03 04:03:00,7.0,-8.5,30.09,NW,322,9.0,18.0,48,0.00,,,0.00,0,WeatherHawk,2013-01-03 09:03:00,
2013-01-03 04:08:00,6.8,-8.7,30.09,NW,323,10.0,20.0,48,0.00,,,0.00,1,WeatherHawk,2013-01-03 09:08:00,
2013-01-03 04:13:00,6.8,-9.1,30.09,NW,319,13.0,20.0,47,0.00,,,0.00,0,WeatherHawk,2013-01-03 09:13:00,
2013-01-03 04:18:00,6.8,-8.7,30.09,NW,314,10.0,20.0,48,0.00,,,0.00,0,WeatherHawk,2013-01-03 09:18:00,
2013-01-03 04:23:00,6.8,-8.7,30.09,WNW,294,12.0,18.0,48,0.00,,,0.00,0,WeatherHawk,2013-01-03 09:23:00,
2013-01-03 04:28:00,6.6,-8.4,30.09,NNW,336,7.0,18.0,49,0.00,,,0.00,0,WeatherHawk,2013-01-03 09:28:00,
2013-01-03 04:33:00,6.6,-8.4,30.09,NNW,337,6.0,16.0,49,0.00,,,0.00,0,WeatherHawk,2013-01-03 09:33:00,
2013-01-03 04:38:00,6.6,-8.4,30.09,NW,307,10.0,19.0,49,0.00,,,0.00,0,WeatherHawk,2013-01-03 09:38:00,
2013-01-03 04:44:00,6.4,-8.6,30.09,NW,316,13.0,20.0,49,0.00,,,0.00,0,WeatherHawk,2013-01-03 09:44:00,
2013-01-03 04:49:00,6.4,-8.6,30.09,NW,310,19.0,20.0,49,0.00,,,0.00,0,WeatherHawk,2013-01-03 09:49:00,
2013-01-03 04:55:00,6.4,-8.6,30.08,NW,306,13.0,19.0,49,0.00,,,0.00,0,WeatherHawk,2013-01-03 09:55:00,
2013-01-03 05:00:00,6.3,-8.8,30.08,NW,321,10.0,-999.0,49,0.00,,,0.00,0,WeatherHawk,2013-01-03 10:00:00,
2013-01-03 05:05:00,6.3,-8.8,30.08,NW,308,18.0,20.0,49,0.00,,,0.00,0,WeatherHawk,2013-01-03 10:05:00,
2013-01-03 05:10:00,6.3,-8.8,30.08,NNW,329,10.0,21.0,49,0.00,,,0.00,0,WeatherHawk,2013-01-03 10:10:00,
2013-01-03 05:15:00,6.3,-8.4,30.08,NW,310,13.0,21.0,50,0.00,,,0.00,0,WeatherHawk,2013-01-03 10:15:00,
2013-01-03 05:20:00,6.3,-8.8,30.08,NW,314,13.0,21.0,49,0.00,,,0.00,0,WeatherHawk,2013-01-03 10:20:00,
2013-01-03 05:25:00,6.1,-8.5,30.08,NNW,333,10.0,21.0,50,0.00,,,0.00,0,WeatherHawk,2013-01-03 10:25:00,
2013-01-03 05:30:00,6.1,-8.9,30.08,NW,307,19.0,19.0,49,0.00,,,0.00,0,WeatherHawk,2013-01-03 10:30:00,
2013-01-03 05:35:00,6.1,-8.5,30.08,NW,312,12.0,20.0,50,0.00,,,0.00,0,WeatherHawk,2013-01-03 10:35:00,
2013-01-03 05:40:00,6.1,-8.5,30.08,NW,306,15.0,20.0,50,0.00,,,0.00,1,WeatherHawk,2013-01-03 10:40:00,
2013-01-03 05:45:00,6.1,-8.5,30.08,NW,312,9.0,19.0,50,0.00,,,0.00,0,WeatherHawk,2013-01-03 10:45:00,
2013-01-03 05:50:00,6.1,-8.5,30.08,WNW,302,13.0,19.0,50,0.00,,,0.00,0,WeatherHawk,2013-01-03 10:50:00,
2013-01-03 05:55:00,6.1,-8.5,30.08,NW,305,15.0,19.0,50,0.00,,,0.00,0,WeatherHawk,2013-01-03 10:55:00,
2013-01-03 06:00:00,6.1,-8.1,30.08,WNW,299,14.0,-999.0,51,0.00,,,0.00,0,WeatherHawk,2013-01-03 11:00:00,
2013-01-03 06:05:00,6.1,-8.5,30.08,NW,321,13.0,-999.0,50,0.00,,,0.00,0,WeatherHawk,2013-01-03 11:05:00,
2013-01-03 06:10:00,6.1,-8.5,30.08,NW,306,14.0,20.0,50,0.00,,,0.00,0,WeatherHawk,2013-01-03 11:10:00,
2013-01-03 06:15:00,6.1,-8.5,30.08,WNW,303,14.0,20.0,50,0.00,,,0.00,0,WeatherHawk,2013-01-03 11:15:00,
2013-01-03 06:20:00,5.9,-8.7,30.08,NW,307,15.0,21.0,50,0.00,,,0.00,0,WeatherHawk,2013-01-03 11:20:00,
2013-01-03 06:25:00,5.9,-8.3,30.08,NW,304,15.0,21.0,51,0.00,,,0.00,0,WeatherHawk,2013-01-03 11:25:00,
2013-01-03 06:30:00,5.9,-8.3,30.08,NNW,330,13.0,20.0,51,0.00,,,0.00,0,WeatherHawk,2013-01-03 11:30:00,
2013-01-03 06:35:00,5.9,-8.3,30.08,WNW,303,11.0,21.0,51,0.00,,,0.00,0,WeatherHawk,2013-01-03 11:35:00,
2013-01-03 06:40:00,5.9,-8.3,30.08,NW,310,16.0,21.0,51,0.00,,,0.00,0,WeatherHawk,2013-01-03 11:40:00,
2013-01-03 06:45:00,5.9,-8.3,30.08,NW,307,10.0,19.0,51,0.00,,,0.00,0,WeatherHawk,2013-01-03 11:45:00,
2013-01-03 06:50:00,6.1,-7.7,30.08,NW,315,14.0,20.0,52,0.00,,,0.00,0,WeatherHawk,2013-01-03 11:50:00,
2013-01-03 06:55:00,6.1,-8.1,30.08,NW,313,19.0,-999.0,51,0.00,,,0.00,0,WeatherHawk,2013-01-03 11:55:00,
2013-01-03 07:00:00,6.1,-8.1,30.08,NNW,332,14.0,21.0,51,0.00,,,0.00,0,WeatherHawk,2013-01-03 12:00:00,
2013-01-03 07:05:00,6.1,-8.1,30.08,NW,319,17.0,21.0,51,0.00,,,0.00,0,WeatherHawk,2013-01-03 12:05:00,
2013-01-03 07:10:00,6.1,-8.1,30.08,WNW,302,13.0,21.0,51,0.00,,,0.00,1,WeatherHawk,2013-01-03 12:10:00,
2013-01-03 07:15:00,6.1,-7.7,30.08,NW,315,10.0,-999.0,52,0.00,,,0.00,4,WeatherHawk,2013-01-03 12:15:00,
2013-01-03 07:20:00,6.1,-7.7,30.09,WNW,302,16.0,-999.0,52,0.00,,,0.00,5,WeatherHawk,2013-01-03 12:20:00,
2013-01-03 07:25:00,5.9,-8.3,30.09,NW,308,14.0,20.0,51,0.00,,,0.00,7,WeatherHawk,2013-01-03 12:25:00,
2013-01-03 07:30:00,6.1,-8.1,30.09,NW,310,14.0,20.0,51,0.00,,,0.00,8,WeatherHawk,2013-01-03 12:30:00,
2013-01-03 07:35:00,6.1,-7.7,30.09,WNW,303,17.0,-999.0,52,0.00,,,0.00,17,WeatherHawk,2013-01-03 12:35:00,
2013-01-03 07:40:00,6.1,-7.7,30.10,NW,309,10.0,-999.0,52,0.00,,,0.00,33,WeatherHawk,2013-01-03 12:40:00,
2013-01-03 07:45:00,6.3,-7.6,30.10,NW,305,13.0,-999.0,52,0.00,,,0.00,60,WeatherHawk,2013-01-03 12:45:00,
2013-01-03 07:50:00,6.4,-7.4,30.10,NW,307,10.0,-999.0,52,0.00,,,0.00,74,WeatherHawk,2013-01-03 12:50:00,
2013-01-03 07:55:00,6.6,-7.6,30.10,NW,314,18.0,18.0,51,0.00,,,0.00,83,WeatherHawk,2013-01-03 12:55:00,
2013-01-03 08:00:00,6.8,-7.5,30.10,NW,304,17.0,18.0,51,0.00,,,0.00,94,WeatherHawk,2013-01-03 13:00:00,
2013-01-03 08:05:00,7.0,-7.7,30.10,NW,320,14.0,20.0,50,0.00,,,0.00,25,WeatherHawk,2013-01-03 13:05:00,
2013-01-03 08:10:00,7.2,-7.5,30.10,NW,326,10.0,-999.0,50,0.00,,,0.00,31,WeatherHawk,2013-01-03 13:10:00,
2013-01-03 08:15:00,7.3,-7.8,30.10,NW,315,12.0,19.0,49,0.00,,,0.00,31,WeatherHawk,2013-01-03 13:15:00,
2013-01-03 08:20:00,7.7,-7.4,30.10,NNW,337,5.0,19.0,49,0.00,,,0.00,33,WeatherHawk,2013-01-03 13:20:00,
2013-01-03 08:25:00,7.9,-7.3,30.10,WNW,301,10.0,16.0,49,0.00,,,0.00,32,WeatherHawk,2013-01-03 13:25:00,
2013-01-03 08:30:00,7.9,-7.7,30.10,WNW,295,12.0,-999.0,48,0.00,,,0.00,32,WeatherHawk,2013-01-03 13:30:00,
2013-01-03 08:35:00,8.1,-7.5,30.10,NW,306,11.0,18.0,48,0.00,,,0.00,171,WeatherHawk,2013-01-03 13:35:00,
2013-01-03 08:40:00,8.6,-7.5,30.10,NW,324,9.0,18.0,47,0.00,,,0.00,192,WeatherHawk,2013-01-03 13:40:00,
2013-01-03 08:45:00,8.8,-7.3,30.11,NW,315,7.0,17.0,47,0.00,,,0.00,194,WeatherHawk,2013-01-03 13:45:00,
2013-01-03 08:50:00,9.0,-7.6,30.10,NW,323,16.0,18.0,46,0.00,,,0.00,203,WeatherHawk,2013-01-03 13:50:00,
2013-01-03 08:55:00,9.3,-7.2,30.10,NW,316,11.0,18.0,46,0.00,,,0.00,222,WeatherHawk,2013-01-03 13:55:00,
2013-01-03 09:00:00,9.5,-7.5,30.10,NW,320,10.0,20.0,45,0.00,,,0.00,226,WeatherHawk,2013-01-03 14:00:00,
2013-01-03 09:05:00,9.9,-7.2,30.10,NW,319,5.0,20.0,45,0.00,,,0.00,246,WeatherHawk,2013-01-03 14:05:00,
2013-01-03 09:10:00,10.2,-6.9,30.10,NNW,331,11.0,17.0,45,0.00,,,0.00,248,WeatherHawk,2013-01-03 14:10:00,
2013-01-03 09:15:00,10.6,-6.5,30.10,NW,305,10.0,14.0,45,0.00,,,0.00,256,WeatherHawk,2013-01-03 14:15:00,
2013-01-03 09:20:00,10.6,-7.0,30.10,NW,316,14.0,15.0,44,0.00,,,0.00,267,WeatherHawk,2013-01-03 14:20:00,
2013-01-03 09:25:00,10.9,-6.7,30.11,WNW,301,5.0,15.0,44,0.00,,,0.00,288,WeatherHawk,2013-01-03 14:25:00,
2013-01-03 09:30:00,11.3,-6.3,30.11,WNW,299,6.0,15.0,44,0.00,,,0.00,286,WeatherHawk,2013-01-03 14:30:00,
2013-01-03 09:35:00,11.7,-6.5,30.11,WNW,283,9.0,11.0,43,0.00,,,0.00,294,WeatherHawk,2013-01-03 14:35:00,
2013-01-03 09:40:00,11.7,-6.5,30.11,WNW,297,12.0,18.0,43,0.00,,,0.00,303,WeatherHawk,2013-01-03 14:40:00,
2013-01-03 09:45:00,11.8,-6.3,30.11,WNW,294,15.0,18.0,43,0.00,,,0.00,317,WeatherHawk,2013-01-03 14:45:00,
2013-01-03 09:50:00,12.2,-5.5,30.11,NW,314,9.0,17.0,44,0.00,,,0.00,323,WeatherHawk,2013-01-03 14:50:00,
2013-01-03 09:55:00,12.4,-5.8,30.11,West,280,6.0,-999.0,43,0.00,,,0.00,341,WeatherHawk,2013-01-03 14:55:00,
2013-01-03 10:00:00,12.4,-6.3,30.11,WNW,295,13.0,17.0,42,0.00,,,0.00,339,WeatherHawk,2013-01-03 15:00:00,
2013-01-03 10:05:00,12.6,-5.6,30.11,NW,314,8.0,17.0,43,0.00,,,0.00,346,WeatherHawk,2013-01-03 15:05:00,
2013-01-03 10:10:00,12.9,-5.8,30.11,NNW,329,10.0,17.0,42,0.00,,,0.00,353,WeatherHawk,2013-01-03 15:10:00,
2013-01-03 10:15:00,13.5,-5.8,30.10,NW,304,13.0,-999.0,41,0.00,,,0.00,363,WeatherHawk,2013-01-03 15:15:00,
2013-01-03 10:20:00,13.8,-4.5,30.10,WNW,286,6.0,-999.0,43,0.00,,,0.00,376,WeatherHawk,2013-01-03 15:20:00,
2013-01-03 10:25:00,14.2,-5.2,30.10,WNW,289,7.0,-999.0,41,0.00,,,0.00,385,WeatherHawk,2013-01-03 15:25:00,
2013-01-03 10:30:00,14.4,-5.5,30.09,WNW,289,12.0,15.0,40,0.00,,,0.00,382,WeatherHawk,2013-01-03 15:30:00,
2013-01-03 10:35:00,14.5,-4.8,30.09,NNW,345,5.0,15.0,41,0.00,,,0.00,387,WeatherHawk,2013-01-03 15:35:00,
2013-01-03 10:40:00,14.7,-5.2,30.09,WNW,301,10.0,-999.0,40,0.00,,,0.00,386,WeatherHawk,2013-01-03 15:40:00,
2013-01-03 10:45:00,14.7,-5.2,30.09,NNW,327,13.0,14.0,40,0.00,,,0.00,398,WeatherHawk,2013-01-03 15:45:00,
2013-01-03 10:50:00,14.9,-4.5,30.08,WNW,289,10.0,14.0,41,0.00,,,0.00,402,WeatherHawk,2013-01-03 15:50:00,
2013-01-03 10:55:00,15.1,-5.4,30.08,NW,325,11.0,15.0,39,0.00,,,0.00,403,WeatherHawk,2013-01-03 15:55:00,
2013-01-03 11:00:00,15.4,-5.0,30.08,NW,324,14.0,15.0,39,0.00,,,0.00,410,WeatherHawk,2013-01-03 16:00:00,
2013-01-03 11:05:00,15.4,-5.0,30.08,NW,317,7.0,14.0,39,0.00,,,0.00,409,WeatherHawk,2013-01-03 16:05:00,
2013-01-03 11:10:00,15.8,-4.7,30.08,NW,309,8.0,15.0,39,0.00,,,0.00,414,WeatherHawk,2013-01-03 16:10:00,
2013-01-03 11:15:00,16.0,-4.6,30.08,NW,306,10.0,17.0,39,0.00,,,0.00,415,WeatherHawk,2013-01-03 16:15:00,
2013-01-03 11:20:00,16.0,-4.6,30.08,NW,323,12.0,-999.0,39,0.00,,,0.00,416,WeatherHawk,2013-01-03 16:20:00,
2013-01-03 11:25:00,16.2,-4.4,30.08,WNW,299,11.0,19.0,39,0.00,,,0.00,419,WeatherHawk,2013-01-03 16:25:00,
2013-01-03 11:30:00,16.5,-4.1,30.07,WNW,289,11.0,19.0,39,0.00,,,0.00,419,WeatherHawk,2013-01-03 16:30:00,
2013-01-03 11:35:00,16.7,-3.9,30.07,NW,325,9.0,19.0,39,0.00,,,0.00,417,WeatherHawk,2013-01-03 16:35:00,
2013-01-03 11:40:00,17.1,-3.6,30.07,WNW,294,10.0,19.0,39,0.00,,,0.00,455,WeatherHawk,2013-01-03 16:40:00,
2013-01-03 11:45:00,17.4,-3.3,30.07,WNW,297,13.0,17.0,39,0.00,,,0.00,392,WeatherHawk,2013-01-03 16:45:00,
2013-01-03 11:50:00,17.6,-3.6,30.07,NW,304,11.0,17.0,38,0.00,,,0.00,365,WeatherHawk,2013-01-03 16:50:00,
2013-01-03 11:55:00,18.1,-3.2,30.07,WNW,292,13.0,16.0,38,0.00,,,0.00,436,WeatherHawk,2013-01-03 16:55:00,
2013-01-03 12:00:00,18.5,-2.8,30.07,WNW,284,11.0,17.0,38,0.00,,,0.00,430,WeatherHawk,2013-01-03 17:00:00,
2013-01-03 12:05:00,18.7,-2.7,30.06,NW,319,11.0,17.0,38,0.00,,,0.00,416,WeatherHawk,2013-01-03 17:05:00,
2013-01-03 12:10:00,18.9,-3.6,30.06,NW,309,14.0,18.0,36,0.00,,,0.00,416,WeatherHawk,2013-01-03 17:10:00,
2013-01-03 12:15:00,19.2,-2.7,30.06,WNW,286,13.0,19.0,37,0.00,,,0.00,421,WeatherHawk,2013-01-03 17:15:00,
2013-01-03 12:20:00,19.6,-2.4,30.06,NW,321,13.0,19.0,37,0.00,,,0.00,417,WeatherHawk,2013-01-03 17:20:00,
2013-01-03 12:25:00,19.9,-2.1,30.06,WNW,302,6.0,18.0,37,0.00,,,0.00,415,WeatherHawk,2013-01-03 17:25:00,
2013-01-03 12:30:00,19.8,-2.8,30.05,WNW,294,13.0,20.0,36,0.00,,,0.00,410,WeatherHawk,2013-01-03 17:30:00,
2013-01-03 12:35:00,19.6,-3.0,30.05,WNW,299,15.0,20.0,36,0.00,,,0.00,410,WeatherHawk,2013-01-03 17:35:00,
2013-01-03 12:40:00,19.6,-3.0,30.05,NW,316,11.0,19.0,36,0.00,,,0.00,410,WeatherHawk,2013-01-03 17:40:00,
2013-01-03 12:45:00,19.8,-2.8,30.05,NW,314,15.0,-999.0,36,0.00,,,0.00,419,WeatherHawk,2013-01-03 17:45:00,
2013-01-03 12:50:00,19.8,-2.8,30.04,NW,304,15.0,19.0,36,0.00,,,0.00,423,WeatherHawk,2013-01-03 17:50:00,
2013-01-03 12:55:00,20.1,-3.1,30.04,North,349,6.0,-999.0,35,0.00,,,0.00,89,WeatherHawk,2013-01-03 17:55:00,
2013-01-03 13:00:00,20.3,-2.3,30.04,WNW,283,10.0,15.0,36,0.00,,,0.00,78,WeatherHawk,2013-01-03 18:00:00,
2013-01-03 13:05:00,20.3,-2.3,30.04,WNW,296,11.0,-999.0,36,0.00,,,0.00,59,WeatherHawk,2013-01-03 18:05:00,
2013-01-03 13:10:00,20.3,-2.3,30.04,WNW,294,13.0,17.0,36,0.00,,,0.00,67,WeatherHawk,2013-01-03 18:10:00,
2013-01-03 13:15:00,20.5,-3.4,30.03,WNW,291,9.0,17.0,34,0.00,,,0.00,86,WeatherHawk,2013-01-03 18:15:00,
2013-01-03 13:20:00,20.7,-2.6,30.03,WNW,293,10.0,17.0,35,0.00,,,0.00,83,WeatherHawk,2013-01-03 18:20:00,
2013-01-03 13:25:00,20.8,-2.5,30.03,WNW,295,8.0,17.0,35,0.00,,,0.00,75,WeatherHawk,2013-01-03 18:25:00,
2013-01-03 13:30:00,21.0,-2.9,30.02,WNW,287,10.0,15.0,34,0.00,,,0.00,64,WeatherHawk,2013-01-03 18:30:00,
2013-01-03 13:35:00,21.6,-2.4,30.02,WNW,289,10.0,14.0,34,0.00,,,0.00,58,WeatherHawk,2013-01-03 18:35:00,
2013-01-03 13:40:00,21.4,-2.6,30.02,WNW,285,12.0,15.0,34,0.00,,,0.00,46,WeatherHawk,2013-01-03 18:40:00,
2013-01-03 13:45:00,21.6,-2.4,30.02,West,279,13.0,16.0,34,0.00,,,0.00,47,WeatherHawk,2013-01-03 18:45:00,
2013-01-03 13:50:00,21.7,-2.9,30.02,NNW,340,7.0,17.0,33,0.00,,,0.00,42,WeatherHawk,2013-01-03 18:50:00,
2013-01-03 13:55:00,21.9,-3.4,30.02,West,280,7.0,17.0,32,0.00,,,0.00,38,WeatherHawk,2013-01-03 18:55:00,
2013-01-03 14:00:00,22.3,-2.4,30.02,West,280,7.0,16.0,33,0.00,,,0.00,40,WeatherHawk,2013-01-03 19:00:00,
2013-01-03 14:05:00,22.5,-3.6,30.02,WNW,289,10.0,16.0,31,0.00,,,0.00,36,WeatherHawk,2013-01-03 19:05:00,
2013-01-03 14:10:00,22.6,-3.4,30.02,NNW,336,6.0,16.0,31,0.00,,,0.00,36,WeatherHawk,2013-01-03 19:10:00,
2013-01-03 14:15:00,23.0,-3.8,30.02,WNW,299,13.0,15.0,30,0.00,,,0.00,35,WeatherHawk,2013-01-03 19:15:00,
2013-01-03 14:55:00,24.4,-3.9,30.03,NW,309,10.0,13.0,28,0.00,,,0.00,34,WeatherHawk,2013-01-03 19:55:00,
2013-01-03 15:00:00,24.4,-3.9,30.02,WNW,285,13.0,17.0,28,0.00,,,0.00,175,WeatherHawk,2013-01-03 20:00:00,
2013-01-03 15:05:00,24.4,-3.9,30.03,WNW,301,8.0,17.0,28,0.00,,,0.00,164,WeatherHawk,2013-01-03 20:05:00,
2013-01-03 15:10:00,24.4,-3.2,30.02,WNW,296,9.0,14.0,29,0.00,,,0.00,156,WeatherHawk,2013-01-03 20:10:00,
2013-01-03 15:15:00,24.6,-3.1,30.02,WNW,299,7.0,12.0,29,0.00,,,0.00,142,WeatherHawk,2013-01-03 20:15:00,
2013-01-03 15:20:00,24.6,-3.1,30.02,WNW,300,8.0,11.0,29,0.00,,,0.00,133,WeatherHawk,2013-01-03 20:20:00,
2013-01-03 15:25:00,24.4,-3.2,30.02,WNW,286,9.0,13.0,29,0.00,,,0.00,120,WeatherHawk,2013-01-03 20:25:00,
2013-01-03 15:30:00,24.6,-3.1,30.02,WNW,286,8.0,13.0,29,0.00,,,0.00,112,WeatherHawk,2013-01-03 20:30:00,
2013-01-03 15:35:00,24.8,-2.9,30.02,WNW,290,8.0,13.0,29,0.00,,,0.00,99,WeatherHawk,2013-01-03 20:35:00,
2013-01-03 15:40:00,24.6,-3.8,30.01,WNW,297,14.0,14.0,28,0.00,,,0.00,89,WeatherHawk,2013-01-03 20:40:00,
2013-01-03 15:45:00,24.8,-3.6,30.02,WNW,296,7.0,14.0,28,0.00,,,0.00,80,WeatherHawk,2013-01-03 20:45:00,
2013-01-03 15:50:00,24.8,-4.4,30.02,NW,317,7.0,14.0,27,0.00,,,0.00,62,WeatherHawk,2013-01-03 20:50:00,
2013-01-03 15:55:00,24.8,-4.4,30.02,WNW,298,7.0,9.0,27,0.00,,,0.00,58,WeatherHawk,2013-01-03 20:55:00,
2013-01-03 16:00:00,24.6,-5.3,30.02,WNW,300,6.0,9.0,26,0.00,,,0.00,47,WeatherHawk,2013-01-03 21:00:00,
2013-01-03 16:05:00,24.4,-5.5,30.02,WNW,302,8.0,12.0,26,0.00,,,0.00,37,WeatherHawk,2013-01-03 21:05:00,
2013-01-03 16:10:00,24.3,-5.6,30.02,NW,311,6.0,12.0,26,0.00,,,0.00,27,WeatherHawk,2013-01-03 21:10:00,
2013-01-03 16:15:00,24.1,-5.8,30.03,NW,314,6.0,10.0,26,0.00,,,0.00,9,WeatherHawk,2013-01-03 21:15:00,
2013-01-03 16:20:00,23.7,-5.3,30.02,NW,322,6.0,10.0,27,0.00,,,0.00,6,WeatherHawk,2013-01-03 21:20:00,
2013-01-03 16:25:00,23.7,-5.3,30.03,WNW,292,6.0,9.0,27,0.00,,,0.00,6,WeatherHawk,2013-01-03 21:25:00,
2013-01-03 16:30:00,23.5,-4.7,30.02,WNW,298,5.0,9.0,28,0.00,,,0.00,4,WeatherHawk,2013-01-03 21:30:00,
2013-01-03 16:35:00,23.4,-4.9,30.03,West,279,4.0,9.0,28,0.00,,,0.00,1,WeatherHawk,2013-01-03 21:35:00,
2013-01-03 16:40:00,23.2,-5.0,30.03,West,278,4.0,10.0,28,0.00,,,0.00,1,WeatherHawk,2013-01-03 21:40:00,
2013-01-03 16:45:00,23.2,-5.0,30.03,WNW,295,3.0,10.0,28,0.00,,,0.00,0,WeatherHawk,2013-01-03 21:45:00,
2013-01-03 16:50:00,23.2,-4.3,30.02,WNW,298,2.0,9.0,29,0.00,,,0.00,0,WeatherHawk,2013-01-03 21:50:00,
2013-01-03 16:55:00,23.0,-5.2,30.02,WNW,291,6.0,9.0,28,0.00,,,0.00,0,WeatherHawk,2013-01-03 21:55:00,
2013-01-03 17:00:00,22.8,-5.3,30.02,West,280,4.0,8.0,28,0.00,,,0.00,0,WeatherHawk,2013-01-03 22:00:00,
2013-01-03 17:05:00,22.8,-5.3,30.02,West,281,5.0,7.0,28,0.00,,,0.00,0,WeatherHawk,2013-01-03 22:05:00,
2013-01-03 17:10:00,22.6,-4.8,30.02,NW,310,3.0,7.0,29,0.00,,,0.00,0,WeatherHawk,2013-01-03 22:10:00,
2013-01-03 17:15:00,22.6,-4.8,30.03,West,280,4.0,6.0,29,0.00,,,0.00,0,WeatherHawk,2013-01-03 22:15:00,
2013-01-03 17:20:00,22.5,-4.9,30.03,NW,318,3.0,6.0,29,0.00,,,0.00,0,WeatherHawk,2013-01-03 22:20:00,
2013-01-03 17:25:00,22.5,-4.9,30.03,WNW,284,2.0,6.0,29,0.00,,,0.00,0,WeatherHawk,2013-01-03 22:25:00,
2013-01-03 17:30:00,22.3,-4.4,30.03,West,281,4.0,5.0,30,0.00,,,0.00,0,WeatherHawk,2013-01-03 22:30:00,
2013-01-03 17:35:00,22.1,-4.5,30.03,WNW,293,4.0,5.0,30,0.00,,,0.00,0,WeatherHawk,2013-01-03 22:35:00,
2013-01-03 17:40:00,21.9,-4.0,30.03,WNW,292,3.0,5.0,31,0.00,,,0.00,0,WeatherHawk,2013-01-03 22:40:00,
2013-01-03 17:45:00,21.9,-4.0,30.03,WNW,286,5.0,6.0,31,0.00,,,0.00,0,WeatherHawk,2013-01-03 22:45:00,
2013-01-03 17:50:00,21.7,-3.5,30.03,WNW,286,3.0,6.0,32,0.00,,,0.00,0,WeatherHawk,2013-01-03 22:50:00,
2013-01-03 17:55:00,21.6,-4.3,30.03,West,279,5.0,6.0,31,0.00,,,0.00,0,WeatherHawk,2013-01-03 22:55:00,
2013-01-03 18:00:00,21.6,-3.7,30.03,WNW,288,4.0,7.0,32,0.00,,,0.00,0,WeatherHawk,2013-01-03 23:00:00,
2013-01-03 18:05:00,21.6,-3.7,30.03,WNW,293,6.0,7.0,32,0.00,,,0.00,0,WeatherHawk,2013-01-03 23:05:00,
2013-01-03 18:10:00,21.6,-3.0,30.03,WNW,299,4.0,8.0,33,0.00,,,0.00,0,WeatherHawk,2013-01-03 23:10:00,
2013-01-03 18:15:00,21.4,-2.6,30.03,WNW,297,5.0,8.0,34,0.00,,,0.00,0,WeatherHawk,2013-01-03 23:15:00,
2013-01-03 18:20:00,21.4,-2.6,30.03,WNW,293,6.0,7.0,34,0.00,,,0.00,0,WeatherHawk,2013-01-03 23:20:00,
2013-01-03 18:25:00,21.4,-2.6,30.03,WNW,296,7.0,9.0,34,0.00,,,0.00,0,WeatherHawk,2013-01-03 23:25:00,
2013-01-03 18:30:00,21.4,-2.0,30.03,WNW,294,5.0,9.0,35,0.00,,,0.00,0,WeatherHawk,2013-01-03 23:30:00,
2013-01-03 18:35:00,21.4,-2.0,30.04,WNW,298,6.0,9.0,35,0.00,,,0.00,0,WeatherHawk,2013-01-03 23:35:00,
2013-01-03 18:40:00,21.2,-1.5,30.04,NW,312,5.0,7.0,36,0.00,,,0.00,0,WeatherHawk,2013-01-03 23:40:00,
2013-01-03 18:45:00,21.2,-2.1,30.04,WNW,294,6.0,7.0,35,0.00,,,0.00,0,WeatherHawk,2013-01-03 23:45:00,
2013-01-03 18:50:00,21.2,-1.5,30.04,West,281,4.0,6.0,36,0.00,,,0.00,0,WeatherHawk,2013-01-03 23:50:00,
2013-01-03 18:55:00,21.0,-1.7,30.04,WNW,283,5.0,6.0,36,0.00,,,0.00,0,WeatherHawk,2013-01-03 23:55:00,
2013-01-03 19:00:00,20.8,-1.9,30.04,WNW,289,5.0,6.0,36,0.00,,,0.00,0,WeatherHawk,2013-01-04 00:00:00,
2013-01-03 19:05:00,20.8,-1.9,30.04,West,281,4.0,6.0,36,0.00,,,0.00,1,WeatherHawk,2013-01-04 00:05:00,
2013-01-03 19:10:00,20.8,-1.9,30.04,WNW,294,4.0,6.0,36,0.00,,,0.00,0,WeatherHawk,2013-01-04 00:10:00,
2013-01-03 19:15:00,20.8,-1.9,30.04,WNW,286,5.0,6.0,36,0.00,,,0.00,0,WeatherHawk,2013-01-04 00:15:00,
2013-01-03 19:20:00,20.8,-1.3,30.04,WNW,291,5.0,6.0,37,0.00,,,0.00,0,WeatherHawk,2013-01-04 00:20:00,
2013-01-03 19:25:00,21.0,-1.1,30.04,NW,306,5.0,6.0,37,0.00,,,0.00,0,WeatherHawk,2013-01-04 00:25:00,
2013-01-03 19:30:00,21.0,-0.6,30.04,WNW,289,3.0,6.0,38,0.00,,,0.00,0,WeatherHawk,2013-01-04 00:30:00,
2013-01-03 19:35:00,21.0,-0.6,30.04,WNW,290,4.0,6.0,38,0.00,,,0.00,0,WeatherHawk,2013-01-04 00:35:00,
2013-01-03 19:40:00,21.2,-0.4,30.04,WNW,287,4.0,6.0,38,0.00,,,0.00,0,WeatherHawk,2013-01-04 00:40:00,
2013-01-03 19:45:00,21.2,0.2,30.04,WNW,298,3.0,5.0,39,0.00,,,0.00,0,WeatherHawk,2013-01-04 00:45:00,
2013-01-03 19:50:00,21.4,0.3,30.04,WNW,291,4.0,5.0,39,0.00,,,0.00,0,WeatherHawk,2013-01-04 00:50:00,
2013-01-03 19:55:00,21.6,0.5,30.04,WNW,290,5.0,6.0,39,0.00,,,0.00,0,WeatherHawk,2013-01-04 00:55:00,
2013-01-03 20:00:00,21.7,0.6,30.04,WNW,297,6.0,7.0,39,0.00,,,0.00,0,WeatherHawk,2013-01-04 01:00:00,
2013-01-03 20:05:00,21.7,0.6,30.04,WNW,303,5.0,7.0,39,0.00,,,0.00,0,WeatherHawk,2013-01-04 01:05:00,
2013-01-03 20:10:00,21.9,0.2,30.03,WNW,288,5.0,8.0,38,0.00,,,0.00,0,WeatherHawk,2013-01-04 01:10:00,
2013-01-03 20:15:00,21.9,0.2,30.03,WNW,285,6.0,8.0,38,0.00,,,0.00,0,WeatherHawk,2013-01-04 01:15:00,
2013-01-03 20:20:00,21.9,0.2,30.04,WNW,284,6.0,8.0,38,0.00,,,0.00,0,WeatherHawk,2013-01-04 01:20:00,
2013-01-03 20:25:00,22.1,0.4,30.03,West,273,6.0,7.0,38,0.00,,,0.00,0,WeatherHawk,2013-01-04 01:25:00,
2013-01-03 20:30:00,22.1,1.0,30.03,West,276,5.0,6.0,39,0.00,,,0.00,0,WeatherHawk,2013-01-04 01:30:00,
2013-01-03 20:35:00,22.1,1.5,30.03,WNW,292,4.0,6.0,40,0.00,,,0.00,0,WeatherHawk,2013-01-04 01:35:00,
2013-01-03 20:40:00,21.9,1.3,30.03,WNW,298,3.0,6.0,40,0.00,,,0.00,0,WeatherHawk,2013-01-04 01:40:00,
2013-01-03 20:45:00,21.9,0.8,30.03,WNW,293,5.0,6.0,39,0.00,,,0.00,0,WeatherHawk,2013-01-04 01:45:00,
2013-01-03 20:50:00,22.1,1.5,30.04,NW,308,4.0,6.0,40,0.00,,,0.00,0,WeatherHawk,2013-01-04 01:50:00,
2013-01-03 20:55:00,21.9,1.3,30.04,WNW,294,6.0,6.0,40,0.00,,,0.00,0,WeatherHawk,2013-01-04 01:55:00,
2013-01-03 21:00:00,21.9,1.9,30.04,WNW,287,3.0,7.0,41,0.00,,,0.00,0,WeatherHawk,2013-01-04 02:00:00,
2013-01-03 21:05:00,22.1,2.0,30.04,WNW,294,5.0,8.0,41,0.00,,,0.00,0,WeatherHawk,2013-01-04 02:05:00,
2013-01-03 21:10:00,21.9,1.9,30.04,WNW,288,5.0,8.0,41,0.00,,,0.00,0,WeatherHawk,2013-01-04 02:10:00,
2013-01-03 21:15:00,21.7,2.2,30.04,WNW,290,4.0,7.0,42,0.00,,,0.00,0,WeatherHawk,2013-01-04 02:15:00,
2013-01-03 21:20:00,21.7,2.2,30.04,West,267,6.0,7.0,42,0.00,,,0.00,0,WeatherHawk,2013-01-04 02:20:00,
2013-01-03 21:25:00,21.7,2.7,30.04,WNW,298,4.0,8.0,43,0.00,,,0.00,0,WeatherHawk,2013-01-04 02:25:00,
2013-01-03 21:30:00,21.7,3.2,30.04,WNW,287,6.0,8.0,44,0.00,,,0.00,0,WeatherHawk,2013-01-04 02:30:00,
2013-01-03 21:35:00,21.7,3.7,30.04,WNW,291,4.0,8.0,45,0.00,,,0.00,0,WeatherHawk,2013-01-04 02:35:00,
2013-01-03 21:40:00,21.6,3.5,30.04,West,265,6.0,7.0,45,0.00,,,0.00,0,WeatherHawk,2013-01-04 02:40:00,
2013-01-03 21:45:00,21.7,4.2,30.04,West,279,4.0,8.0,46,0.00,,,0.00,0,WeatherHawk,2013-01-04 02:45:00,
2013-01-03 21:50:00,21.7,4.2,30.04,WNW,295,5.0,8.0,46,0.00,,,0.00,0,WeatherHawk,2013-01-04 02:50:00,
2013-01-03 21:55:00,21.7,4.6,30.03,West,268,5.0,6.0,47,0.00,,,0.00,0,WeatherHawk,2013-01-04 02:55:00,
2013-01-03 22:00:00,21.7,5.1,30.03,NW,307,5.0,7.0,48,0.00,,,0.00,0,WeatherHawk,2013-01-04 03:00:00,
2013-01-03 22:05:00,21.7,5.1,30.03,WNW,284,4.0,7.0,48,0.00,,,0.00,0,WeatherHawk,2013-01-04 03:05:00,
2013-01-03 22:10:00,21.7,5.1,30.03,West,279,4.0,6.0,48,0.00,,,0.00,0,WeatherHawk,2013-01-04 03:10:00,
2013-01-03 22:15:00,21.7,5.6,30.03,WNW,282,5.0,6.0,49,0.00,,,0.00,0,WeatherHawk,2013-01-04 03:15:00,
2013-01-03 22:20:00,21.7,5.6,30.03,WNW,295,5.0,6.0,49,0.00,,,0.00,0,WeatherHawk,2013-01-04 03:20:00,
2013-01-03 22:25:00,21.7,6.0,30.03,WNW,298,5.0,7.0,50,0.00,,,0.00,0,WeatherHawk,2013-01-04 03:25:00,
2013-01-03 22:30:00,21.7,6.0,30.03,West,280,4.0,7.0,50,0.00,,,0.00,1,WeatherHawk,2013-01-04 03:30:00,
2013-01-03 22:35:00,21.7,6.4,30.03,WNW,291,5.0,7.0,51,0.00,,,0.00,0,WeatherHawk,2013-01-04 03:35:00,
2013-01-03 22:40:00,21.7,6.4,30.03,WNW,292,4.0,8.0,51,0.00,,,0.00,0,WeatherHawk,2013-01-04 03:40:00,
2013-01-03 22:45:00,21.9,6.6,30.02,WNW,287,5.0,9.0,51,0.00,,,0.00,0,WeatherHawk,2013-01-04 03:45:00,
2013-01-03 22:50:00,21.9,6.6,30.02,West,276,6.0,9.0,51,0.00,,,0.00,0,WeatherHawk,2013-01-04 03:50:00,
2013-01-03 22:55:00,21.7,6.4,30.02,West,279,4.0,8.0,51,0.00,,,0.00,0,WeatherHawk,2013-01-04 03:55:00,
2013-01-03 23:00:00,21.7,6.4,30.01,West,266,7.0,7.0,51,0.00,,,0.00,0,WeatherHawk,2013-01-04 04:00:00,
2013-01-03 23:05:00,21.7,6.4,30.01,WNW,293,3.0,7.0,51,0.00,,,0.00,1,WeatherHawk,2013-01-04 04:05:00,
2013-01-03 23:10:00,21.7,6.9,30.01,West,269,7.0,8.0,52,0.00,,,0.00,0,WeatherHawk,2013-01-04 04:10:00,
2013-01-03 23:15:00,21.7,6.9,30.00,West,272,7.0,8.0,52,0.00,,,0.00,0,WeatherHawk,2013-01-04 04:15:00,
2013-01-03 23:20:00,21.7,6.9,30.00,West,263,5.0,7.0,52,0.00,,,0.00,0,WeatherHawk,2013-01-04 04:20:00,
2013-01-03 23:25:00,21.9,7.4,30.00,WSW,258,6.0,8.0,53,0.00,,,0.00,0,WeatherHawk,2013-01-04 04:25:00,
2013-01-03 23:30:00,21.9,7.4,30.00,West,272,5.0,8.0,53,0.00,,,0.00,0,WeatherHawk,2013-01-04 04:30:00,
2013-01-03 23:35:00,22.1,7.6,29.99,West,270,4.0,8.0,53,0.00,,,0.00,1,WeatherHawk,2013-01-04 04:35:00,
2013-01-03 23:40:00,22.5,7.9,29.99,WSW,250,7.0,10.0,53,0.00,,,0.00,0,WeatherHawk,2013-01-04 04:40:00,
2013-01-03 23:45:00,22.6,8.1,29.99,West,270,8.0,10.0,53,0.00,,,0.00,0,WeatherHawk,2013-01-04 04:45:00,
2013-01-03 23:50:00,22.6,8.1,29.99,West,262,6.0,10.0,53,0.00,,,0.00,0,WeatherHawk,2013-01-04 04:50:00,
2013-01-03 23:55:00,22.6,8.1,29.98,West,270,7.0,10.0,53,0.00,,,0.00,0,WeatherHawk,2013-01-04 04:55:00,